NOAA 16 DEB, 42421

Orbit data source: Space-Track

NOAA 16 DEB, 42421 is space debris in SSO originally from a launch on Thu, 21 Sep 2000 UTC launched from the Air Force Western Test Range (AFWTR). Debris objects in space refer to the collection of defunct objects orbiting the Earth. Examples of debris include non-operational satellites, rocket bodies, and fragments generated from explosions, collisions, or faulty payload assembly.

Loading next visibility...
Identifier
42421, 2000-055TR
Orbit
SSO
Country
Flag of USUS
Related business
Manufacturer
Unknown
Mission
Spacecraft
Bus & Motor
Unknown
Mass
Unknown
Launch date (UTC)
2000-09-21 (25 years ago)
Launch vehicle
Unknown
Launch site
Air Force Western Test Range (AFWTR)
Object type
Payload
Rocket body
Debris
Shape & HBR
Unknown shape, 0.1 m
Radar Cross Section
Small (<0.1 m²)

Expand to show TLE details & history
Last TLE update: 2 weeks ago

TLE from 2 weeks ago
0 NOAA 16 DEB
1 42421U 00055TR  25283.22082119  .00004538  00000-0  26599-2 0  9991
2 42421  98.8775 259.6767 0083849  75.0168 286.0264 14.06925190455188
Epoch: 2025-10-10T05:17Z
TLE epoch observation values (Epoch: 2025-10-10T05:17:58.950Z)
Latitude
-0.00002°
Longitude
161.1113°
Altitude
856.495 km
Speed
7.433 km/s
True Right ascension
17h 18m 42s
True Declination
0° 00' 00"
Sunlit
Object was in daylight at epoch
Visualization orbit readout
Latitude
Unknown
Longitude
Unknown
Altitude
Unknown
Speed
Unknown
Apparent Right ascension
Unknown
Apparent Declination
Unknown
Sunlit
N/A
Visualization observer readout
Local Sidereal Time
00:17:48
Azimuth
Unknown
Elevation
Unknown
Doppler factor
Unknown
Orbital elements
Apogee altitude
927.847 km
Perigee altitude
806.346 km
Semi-major axis
7,245.234 km
Eccentricity
0.00838
Inclination
98.8775°
RAAN
259.6767°
Arg. of periapsis
75.0168°
True anomaly
285.10027°
Mean anomaly
286.0264°
Eccentric anomaly
285.5636°
Mean motion
3.51937 °/min
Orbital period
102.29 mins
BSTAR
0.0026599
Loading maneuver chart data...
Computing Atmospheric mass density...
Loading historical data...
Loading historical data...
Loading historical data...
Loading historical data...
Loading historical data...
Loading historical data...
Loading historical data...

Documentation

Showing up to 5 results
|